Location: Auttagershofen
(48.1940°N, 10.0237°E)
Time: 01:13:01
(UTC+00:00)

Cosmos 1610 Rocket - Pass Details

Date: 18 January 2026
Orbit: 952 x 1001 km, 82.9° (Epoch: 6 February)

Event Time Altitude Azimuth Distance (km) Brightness Sun altitude
Rises 05:22:12 0° 195° (SSW) 3,614 7.5 -16.5°
Reaches altitude 10° 05:24:42 10° 198° (SSW) 2,673 6.7 -16.1°
Maximum altitude 05:30:46 68° 281° (WNW) 1,027 4.4 -15.1°
Drops below altitude 10° 05:36:55 10° 5° (N) 2,703 6.7 -14.1°
Sets 05:39:28 0° 8° (N) 3,659 7.4 -13.7°
